Preview of NWS' New Version of Forecast
This preview is not operational and should not be used for support decisions.

Regional Weather Roundup (RWR)

Issued by National Weather Service (NWS)

                            
000
ASUS44 KMEG 152210
RWRTN 
TENNESSEE HOURLY STATE WEATHER ROUNDUP
NATIONAL WEATHER SERVICE MEMPHIS TN
500 PM CDT MON OCT 15 2018

TNZ002-004-019-021-049-052-054-088>092-152300-
WEST TENNESSEE
  
CITY           SKY/WX    TMP DP  RH WIND       PRES   REMARKS
MEMPHIS INTL   CLOUDY    53  49  86 NE13      30.23F                  
NWS MEMPHIS      N/A     50 N/A N/A MISG        N/A                   
JACKSON        CLOUDY    52  50  93 N12       30.25S                  
COVINGTON      CLOUDY    50  48  93 NE13      30.25F                  
UNION CITY     CLOUDY    48  46  93 N12       30.28R                  
BOLIVAR        CLOUDY    54  50  87 NW8G22    30.23R                  
PARIS          CLOUDY    50  48  93 N7G14     30.28R                  
HUNTINGDON     CLOUDY    52  50  93 NW6       30.26S                  
LEXINGTON      CLOUDY    54  52  94 N16       30.23R                  
SELMER         CLOUDY    55  55 100 N10G25    30.20R FOG              
SAVANNAH       CLOUDY    70  64  83 N16       30.19R                  
$$

TNZ008-025-027-028-033-062-065-066-152300-
NORTH MIDDLE TENNESSEE
  
CITY           SKY/WX    TMP DP  RH WIND       PRES   REMARKS
NASHVILLE      CLOUDY    57  53  86 N9        30.20R                  
DICKSON        CLOUDY    52  50  93 N14       30.23R                  
PORTLAND       CLOUDY    54  52  94 N10G17    30.22R                  
CLARKSVILLE    CLOUDY    51  47  86 N12       30.27R                  
LEBANON        CLOUDY    57  55  94 N9        30.17R                  
SMYRNA         CLOUDY    58  56  93 N9        30.19R                  
MURFREESBORO   CLOUDY    59  55  88 N8        30.16F                  
COOKEVILLE     CLOUDY    61  57  88 NW6       30.15S                  
LIVINGSTON     CLOUDY    57  55  94 N8        30.17R                  
CROSSVILLE     FOG       61  60  97 NW10      30.18R VSB 1/2          
ROCKWOOD       FOG       66  66 100 N8G16     30.14R VSB 1/4          
$$

TNZ061-075-076-078-094-096-097-152300-
SOUTH MIDDLE TENNESSEE
  
CITY           SKY/WX    TMP DP  RH WIND       PRES   REMARKS
LAWRENCEBURG   CLOUDY    63  57  82 NW8       30.16S                  
LEWISBURG      CLOUDY    61  57  88 N5        30.15F                  
FAYETTEVILLE   CLOUDY    63  63 100 N8        30.15R                  
TULLAHOMA      CLOUDY    59  59 100 N8        30.17R                  
WINCHESTER     CLOUDY    63  61  94 N8G18     30.16R                  
COLUMBIA       CLOUDY    61  61 100 VRB6      30.17R                  
SHELBYVILLE    CLOUDY    61  55  82 N6        30.16S                  
$$

TNZ017-018-042-046-047-152300-
NORTHEAST TENNESSEE
  
CITY           SKY/WX    TMP DP  RH WIND       PRES   REMARKS
TRI CITIES     MOCLDY    73  64  73 NW5       30.12R                  
ELIZABETHTON   CLOUDY    75  61  60 W6        30.12R                  
GREENEVILLE    MOCLDY    73  64  73 SW3       30.12S                  
$$

TNZ012-013-036-069-073-074-152300-
CENTRAL EAST TENNESSEE
  
CITY           SKY/WX    TMP DP  RH WIND       PRES   REMARKS
KNOXVILLE      CLOUDY    76  67  73 SW7       30.09S                  
OAK RIDGE      PTSUNNY   73  70  90 CALM      30.11S                  
DOWNTOWN KNOXV CLOUDY    77  68  73 W3        30.09F                  
GATLINBURG     CLOUDY    77  64  65 W8        30.10R                  
MORRISTOWN     CLOUDY    75  64  69 W8        30.10S                  
JACKSBORO      CLOUDY    70  68  94 CALM      30.15S                  
$$

TNZ083-085-099-152300-
SOUTHEAST TENNESSEE
  
CITY           SKY/WX    TMP DP  RH WIND       PRES   REMARKS
CHATTANOOGA    PTSUNNY   78  65  63 S5        30.10S                  
DAYTON         CLOUDY    77  68  73 VRB5      30.09R                  
$$

SKY/WX REPORTED AS FAIR MEANS FEW OR NO CLOUDS BELOW
12 THOUSAND FEET.